User: anonymous
Location: Caltech
(34.1382°N, 118.1253°W)
Time: 07:15:32
(UTC-07:00)
Language:

Oscar 16 - Orbit

View from above orbital plane
View from above orbital plane
View from above satellite
View from above satellite

Ground track
Ground track

The orbit data is extracted from the following two-line orbital elements,

1 20439U 90005D   14273.45257392  .00000243  00000-0  10573-3 0  1378
2 20439 098.5135 208.8367 0010558 202.1989 277.0572 14.32394449289557
Epoch (UTC): 30 September 2014 10:51:42
Eccentricity: 0.0010558
inclination: 98.5135°
perigee height: 776 km
apogee height: 791 km
right ascension of ascending node: 208.8367°
argument of perigee: 202.1989°
revolutions per day: 14.32394449
mean anomaly at epoch: 277.0572°
orbit number at epoch: 28955

The dashed part of the orbit path shows where the satellite is in the earth's shadow,  

DLR